[[{"header":{"parameterUnit":"m.s-1","parameterCategory":2,"la1":30.2992,"la2":30.254,"lo1":-89.0895,"lo2":-89.0443,"dy":0.0025,"dx":0.0025,"nx":19,"ny":19,"refTime":"2026-04-17T09:00:00:Z","depth":"0","parameterNumber":2,"parameterNumberName":"U-component_of_CURRENTS"},"data":[0,0,0,0.4286,0.4289,0.446,0.4461,0.4753,0.4756,0,0,0,0,0,0,0,0,0,0,0,0.4222,0.4223,0.4285,0.429,0.446,0.4461,0.4753,0.4756,0,0,0,0,0,0,0,0,0,0,0,0.4222,0.4223,0.4225,0.429,0.446,0.4461,0.4752,0.4605,0,0,0,0,0,0,0,0,0,0,0.4429,0.4355,0.4223,0.4225,0.4291,0.446,0.4461,0.4597,0.4614,0.4697,0,0.4725,0,0.4754,0.4778,0.4779,0,0,0,0.4288,0.434,0.4395,0.4225,0.4293,0.446,0.4383,0.4606,0.4625,0.4721,0.4729,0.474,0.4759,0.478,0.4781,0.5101,0.5102,0,0,0.4279,0.4251,0.4381,0.4407,0.4343,0.4377,0.4388,0.4617,0.4637,0.473,0.4747,0.4764,0.4782,0.4784,0.51,0.5101,0,0,0,0.4253,0.4244,0.4291,0.4395,0.4424,0.4382,0.4395,0.4626,0.4644,0.475,0.4767,0.4784,0.4788,0.5099,0.5101,0.5223,0,0,0,0.4247,0.4229,0.4287,0.4271,0.4419,0.4517,0.4399,0.4628,0.4655,0.4766,0.4784,0.4791,0.5098,0.51,0.5217,0.525,0,0,0,0.4213,0.4226,0.4248,0.4269,0.4345,0.4513,0.4544,0.4633,0.4667,0.4779,0.4792,0.5097,0.5099,0.5211,0.5241,0.5302,0,0,0,0.4175,0.4237,0.4247,0.4351,0.4344,0.4523,0.4542,0.4654,0.4746,0.4785,0.5098,0.51,0.521,0.5236,0.5297,0.5203,0.5219,0,0,0.4234,0.4243,0.4313,0.4328,0.4507,0.4499,0.4699,0.479,0.482,0.5025,0.5032,0.5219,0.5241,0.5301,0.5356,0.5367,0,0,0,0.4323,0.4362,0.4424,0.4531,0.4649,0.4766,0.4844,0.4917,0.5078,0.489,0.5238,0.5248,0.5282,0.5215,0.5226,0.5011,0.5113,0.5112,0.5112,0.4313,0.442,0.4547,0.4686,0.4808,0.4957,0.5072,0.5184,0.5199,0.5283,0.5364,0.5511,0.5444,0.545,0.5232,0.5392,0.5392,0.5393,0.5393,0.4374,0.4439,0.4608,0.4753,0.492,0.5077,0.5329,0.5365,0.5573,0.5531,0.5558,0.5367,0.5468,0.5231,0.5401,0.54,0.5399,0.5398,0.5397,0.4314,0.4363,0.4467,0.4685,0.4898,0.5112,0.5329,0.55,0.5652,0.5729,0.561,0.5606,0.538,0.5727,0.5727,0.5728,0.5728,0.5729,0.5729,0.4173,0.4297,0.4386,0.4618,0.4753,0.4982,0.5326,0.5497,0.5676,0.5725,0.5724,0.5403,0.5612,0.5579,0.5736,0.5735,0.5734,0.5733,0.5733,0.4089,0.414,0.4258,0.4377,0.4668,0.4764,0.5138,0.5408,0.561,0.5664,0.5459,0.5724,0.5666,0.5655,0.5622,0.5782,0.5782,0.5782,0.5782,0.4005,0.405,0.416,0.4286,0.4478,0.4666,0.4744,0.5022,0.526,0.5278,0.5362,0.5236,0.5243,0.5152,0.5153,0.5106,0.5131,0.513,0.5129,0.3967,0.4018,0.4042,0.4174,0.4374,0.4484,0.4401,0.4401,0.4784,0.5083,0.5089,0.5117,0.4912,0.4941,0.4778,0.4795,0.4712,0,0]},{"header":{"parameterUnit":"m.s-1","parameterCategory":2,"la1":30.2992,"la2":30.254,"lo1":-89.0895,"lo2":-89.0443,"dy":0.0025,"dx":0.0025,"nx":19,"ny":19,"refTime":"2026-04-17T09:00:00:Z","depth":"0","parameterNumber":3,"parameterNumberName":"V-component_of_CURRENTS"},"data":[0,0,0,0.0238,0.0237,0.0169,0.0169,0.0083,0.0083,0,0,0,0,0,0,0,0,0,0,0,0.0259,0.0259,0.0238,0.0237,0.0169,0.0169,0.0084,0.0083,0,0,0,0,0,0,0,0,0,0,0,0.0259,0.0259,0.0259,0.0237,0.0169,0.0168,0.0084,0.0129,0,0,0,0,0,0,0,0,0,0,0.0193,0.022,0.0259,0.0259,0.0237,0.0169,0.0168,0.0131,0.0126,0.0122,0,0.0124,0,0.0112,0.0079,0.0079,0,0,0,0.0215,0.0224,0.0211,0.0259,0.0236,0.017,0.0194,0.0128,0.0123,0.0115,0.0122,0.0119,0.0111,0.0079,0.0079,0.0182,0.0184,0,0,0.0219,0.0237,0.0214,0.0208,0.0235,0.0196,0.0192,0.0125,0.0124,0.0122,0.0117,0.011,0.0079,0.0078,0.0181,0.0183,0,0,0,0.0244,0.024,0.0227,0.0211,0.0205,0.0195,0.019,0.0126,0.0124,0.0116,0.0109,0.0078,0.0078,0.0179,0.0182,0.036,0,0,0,0.0246,0.0256,0.0229,0.0238,0.0207,0.0165,0.0193,0.0128,0.0121,0.0109,0.0078,0.0077,0.0177,0.018,0.0351,0.0473,0,0,0,0.0259,0.0258,0.0256,0.024,0.0221,0.0166,0.0158,0.0126,0.0117,0.0079,0.0077,0.0176,0.018,0.0344,0.0458,0.0561,0,0,0,0.027,0.0304,0.0257,0.0294,0.0222,0.0259,0.0158,0.0155,0.0134,0.0078,0.0178,0.0181,0.0341,0.0449,0.0553,0.074,0.0796,0,0,0.0326,0.0311,0.0336,0.0293,0.0354,0.0266,0.0351,0.0261,0.0191,0.0191,0.0193,0.0354,0.0457,0.056,0.0952,0.1002,0,0,0,0.0363,0.039,0.0397,0.0417,0.0413,0.046,0.0377,0.0368,0.037,0.0199,0.0379,0.044,0.0498,0.0593,0.0633,0.0366,0.0198,0.0198,0.0198,0.0469,0.0471,0.0544,0.0562,0.059,0.0592,0.0637,0.062,0.0502,0.055,0.0602,0.0832,0.0938,0.097,0.0692,0.0597,0.0598,0.0598,0.0599,0.0599,0.0659,0.0679,0.0756,0.0797,0.0871,0.0909,0.0864,0.0947,0.081,0.0855,0.0799,0.1025,0.0712,0.0611,0.0609,0.0607,0.0606,0.0605,0.0686,0.0725,0.0766,0.0894,0.1031,0.1071,0.1274,0.1233,0.1147,0.1215,0.126,0.1258,0.0966,0.1207,0.1208,0.1209,0.121,0.1211,0.1211,0.0765,0.081,0.0933,0.1059,0.1182,0.1364,0.1502,0.1597,0.1615,0.1519,0.1519,0.1049,0.1018,0.0974,0.1227,0.1224,0.1222,0.1221,0.122,0.0902,0.0908,0.1087,0.1216,0.1515,0.1798,0.1894,0.2117,0.2126,0.2166,0.1545,0.1665,0.1628,0.1595,0.1566,0.1957,0.1957,0.1957,0.1957,0.0995,0.1009,0.1266,0.1496,0.1792,0.2017,0.2458,0.2578,0.2226,0.1947,0.1691,0.154,0.1522,0.1462,0.1433,0.1392,0.173,0.1729,0.1728,0.1116,0.1165,0.1384,0.1589,0.1931,0.2285,0.2723,0.289,0.2231,0.1676,0.1282,0.1293,0.1011,0.1004,0.0854,0.0833,0.0746,0,0]}],[{"header":{"parameterUnit":"m.s-1","parameterCategory":2,"la1":30.2992,"la2":30.254,"lo1":-89.0895,"lo2":-89.0443,"dy":0.0025,"dx":0.0025,"nx":19,"ny":19,"refTime":"2026-04-17T09:00:00:Z","depth":"2","parameterNumber":2,"parameterNumberName":"U-component_of_CURRENTS"},"data":[0,0,0,0.3511,0.3514,0.3666,0.3667,0.3858,0.386,0,0,0,0,0,0,0,0,0,0,0,0.3445,0.3446,0.3511,0.3515,0.3666,0.3667,0.3858,0.386,0,0,0,0,0,0,0,0,0,0,0,0.3445,0.3446,0.3447,0.3515,0.3666,0.3667,0.3858,0.3742,0,0,0,0,0,0,0,0,0,0,0.3595,0.355,0.3446,0.3447,0.3516,0.3666,0.3667,0.3737,0.375,0.3791,0,0.3813,0,0.3851,0.3873,0.3874,0,0,0,0.3509,0.3539,0.3571,0.3447,0.3518,0.3666,0.3596,0.3744,0.3758,0.3808,0.3816,0.3823,0.3854,0.3875,0.3876,0.4189,0.419,0,0,0.3501,0.3485,0.3561,0.358,0.3556,0.3591,0.3601,0.3753,0.3773,0.3816,0.3828,0.3857,0.3876,0.3878,0.4187,0.4189,0,0,0,0.3481,0.3479,0.3507,0.3571,0.3605,0.3596,0.3607,0.3766,0.3773,0.3831,0.386,0.3877,0.388,0.4185,0.4188,0.4275,0,0,0,0.3475,0.3468,0.3503,0.3497,0.3602,0.3693,0.3617,0.3762,0.3781,0.3859,0.3877,0.3882,0.4182,0.4186,0.4268,0.4356,0,0,0,0.3439,0.3465,0.3479,0.3496,0.3565,0.3691,0.3707,0.3766,0.3799,0.3874,0.3882,0.4181,0.4185,0.4261,0.4345,0.4361,0,0,0,0.3421,0.3461,0.3479,0.3541,0.3563,0.3698,0.3706,0.3804,0.387,0.3878,0.4183,0.4187,0.4259,0.4338,0.4355,0.4116,0.4124,0,0,0.346,0.3466,0.3502,0.3522,0.3647,0.3676,0.3855,0.3926,0.3963,0.4126,0.4134,0.427,0.4344,0.436,0.4382,0.4381,0,0,0,0.3508,0.3521,0.3558,0.3643,0.3743,0.3871,0.3956,0.4044,0.4211,0.4027,0.434,0.4387,0.4391,0.4237,0.4239,0.4209,0.4209,0.4208,0.4208,0.3484,0.3561,0.3642,0.3742,0.3853,0.4037,0.4166,0.4318,0.4312,0.4428,0.4506,0.4658,0.4499,0.4497,0.4536,0.4537,0.4537,0.4538,0.4538,0.3545,0.3575,0.3714,0.3855,0.4017,0.42,0.4417,0.4479,0.473,0.47,0.4695,0.4401,0.4502,0.4546,0.4545,0.4544,0.4543,0.4542,0.4542,0.3504,0.3529,0.3661,0.386,0.4066,0.4269,0.447,0.4676,0.4816,0.4906,0.466,0.4654,0.4664,0.4859,0.4859,0.486,0.486,0.4861,0.4861,0.3414,0.3511,0.3628,0.3828,0.3951,0.4194,0.4513,0.4664,0.4763,0.4795,0.479,0.4766,0.4756,0.4686,0.4869,0.4868,0.4867,0.4866,0.4865,0.3342,0.3376,0.3485,0.3618,0.3884,0.3917,0.4274,0.4445,0.4626,0.4608,0.4694,0.4695,0.4638,0.4632,0.4561,0.4701,0.4701,0.4701,0.4701,0.325,0.3288,0.3383,0.3482,0.3636,0.3788,0.3775,0.389,0.4157,0.4212,0.4232,0.4075,0.4093,0.3997,0.4006,0.3918,0.3892,0.389,0.3889,0.3218,0.324,0.3266,0.3362,0.3502,0.3572,0.3362,0.3199,0.3447,0.3855,0.4073,0.4651,0.447,0.4478,0.4367,0.4368,0.4241,0,0]},{"header":{"parameterUnit":"m.s-1","parameterCategory":2,"la1":30.2992,"la2":30.254,"lo1":-89.0895,"lo2":-89.0443,"dy":0.0025,"dx":0.0025,"nx":19,"ny":19,"refTime":"2026-04-17T09:00:00:Z","depth":"2","parameterNumber":3,"parameterNumberName":"V-component_of_CURRENTS"},"data":[0,0,0,0.0112,0.0111,0.0048,0.0048,-0.0054,-0.0054,0,0,0,0,0,0,0,0,0,0,0,0.0131,0.0131,0.0112,0.0111,0.0048,0.0048,-0.0054,-0.0054,0,0,0,0,0,0,0,0,0,0,0,0.0131,0.0131,0.013,0.0111,0.0048,0.0047,-0.0053,-0.0006,0,0,0,0,0,0,0,0,0,0,0.0056,0.0083,0.0131,0.013,0.0111,0.0048,0.0047,-0.0004,-0.0009,-0.0024,0,-0.0021,0,-0.003,-0.006,-0.006,0,0,0,0.009,0.0088,0.0076,0.013,0.0111,0.0049,0.007,-0.0007,-0.0012,-0.0031,-0.0023,-0.0026,-0.0031,-0.006,-0.0061,0.0003,0.0004,0,0,0.0093,0.0108,0.0081,0.0073,0.011,0.0073,0.0069,-0.001,-0.0013,-0.0023,-0.0029,-0.0033,-0.0061,-0.0061,0.0002,0.0003,0,0,0,0.0118,0.0111,0.0101,0.0077,0.0073,0.0071,0.0067,-0.001,-0.0011,-0.003,-0.0034,-0.0061,-0.0062,0.0,0.0002,0.0142,0,0,0,0.0119,0.0127,0.0103,0.011,0.0075,0.0034,0.0069,-0.0006,-0.0015,-0.0034,-0.0061,-0.0063,-0.0001,0.0001,0.0136,0.0263,0,0,0,0.0131,0.0128,0.0127,0.0111,0.0095,0.0035,0.0028,-0.0009,-0.0017,-0.006,-0.0063,-0.0002,0.0001,0.0129,0.0251,0.032,0,0,0,0.0138,0.0168,0.0127,0.0158,0.0096,0.0124,0.0028,0.0017,-0.001,-0.0062,-0.0001,0.0002,0.0128,0.0243,0.0313,0.0365,0.0403,0,0,0.0186,0.0173,0.0194,0.0157,0.021,0.013,0.0199,0.0105,0.0034,0.0015,0.0017,0.0138,0.025,0.0319,0.0541,0.0574,0,0,0,0.0217,0.0239,0.0244,0.0262,0.0257,0.0297,0.0214,0.0191,0.0168,0.0036,0.0161,0.0229,0.0266,0.0283,0.031,0.0017,0.0016,0.0016,0.0015,0.0304,0.0307,0.037,0.0388,0.0412,0.0406,0.0431,0.0395,0.0282,0.0307,0.0357,0.0537,0.0557,0.0577,0.0337,0.0337,0.0338,0.0338,0.0339,0.0422,0.0473,0.0491,0.0554,0.0588,0.0649,0.066,0.0604,0.0647,0.0527,0.0553,0.045,0.0615,0.035,0.0348,0.0346,0.0345,0.0344,0.0344,0.0497,0.0531,0.0562,0.0679,0.0795,0.0827,0.0999,0.094,0.0822,0.0868,0.0826,0.0823,0.0626,0.0847,0.0848,0.0849,0.085,0.085,0.0851,0.0567,0.0607,0.0716,0.0828,0.0941,0.1109,0.1211,0.1256,0.1177,0.1048,0.1046,0.0709,0.0693,0.0656,0.0865,0.0862,0.0861,0.0859,0.0858,0.0687,0.0693,0.0863,0.0979,0.1258,0.1509,0.1567,0.1629,0.1584,0.1541,0.112,0.1109,0.1074,0.1051,0.1023,0.1315,0.1315,0.1315,0.1315,0.0765,0.0782,0.1028,0.1251,0.1527,0.1708,0.1975,0.1887,0.1628,0.1399,0.1395,0.1273,0.1253,0.1218,0.119,0.1161,0.149,0.149,0.149,0.0874,0.0923,0.1133,0.1332,0.1656,0.1936,0.2142,0.2007,0.1598,0.1492,0.1374,0.1337,0.1138,0.1116,0.1036,0.1002,0.0944,0,0]}],[{"header":{"parameterUnit":"m.s-1","parameterCategory":2,"la1":30.2992,"la2":30.254,"lo1":-89.0895,"lo2":-89.0443,"dy":0.0025,"dx":0.0025,"nx":19,"ny":19,"refTime":"2026-04-17T09:00:00:Z","depth":"4","parameterNumber":2,"parameterNumberName":"U-component_of_CURRENTS"},"data":[0,0,0,0.2067,0.207,0.2205,0.2206,0.2325,0.2326,0,0,0,0,0,0,0,0,0,0,0,0.2031,0.2033,0.2067,0.207,0.2205,0.2206,0.2325,0.2326,0,0,0,0,0,0,0,0,0,0,0,0.2031,0.2032,0.2034,0.2071,0.2205,0.2206,0.2325,0.2235,0,0,0,0,0,0,0,0,0,0,0.211,0.2109,0.2032,0.2034,0.2071,0.2205,0.2206,0.2232,0.2241,0.2249,0,0.2288,0,0.2306,0.2333,0.2333,0,0,0,0.2068,0.2102,0.2115,0.2034,0.2073,0.2205,0.2144,0.2237,0.2248,0.2261,0.2289,0.2294,0.2308,0.2334,0.2334,0.247,0.2471,0,0,0.206,0.2075,0.2108,0.2122,0.213,0.2139,0.2148,0.2244,0.2277,0.229,0.2297,0.231,0.2334,0.2335,0.2469,0.247,0,0,0,0.204,0.207,0.2082,0.2117,0.2144,0.2143,0.2153,0.2273,0.2272,0.2298,0.2311,0.2335,0.2336,0.2469,0.247,0.2615,0,0,0,0.2036,0.2057,0.2079,0.2091,0.2143,0.2224,0.218,0.2265,0.2277,0.231,0.2335,0.2337,0.2468,0.2469,0.2609,0.2622,0,0,0,0.2021,0.2056,0.2073,0.2091,0.2147,0.2222,0.2228,0.2268,0.2284,0.2333,0.2338,0.2467,0.2469,0.2604,0.2615,0.268,0,0,0,0.2027,0.2049,0.2075,0.2118,0.2146,0.2199,0.2227,0.2295,0.234,0.2336,0.2468,0.2469,0.2603,0.2611,0.2675,0.2329,0,0,0,0.2038,0.2052,0.2072,0.2096,0.2118,0.2179,0.2279,0.2359,0.2368,0.243,0.2434,0.2611,0.2615,0.2679,0.2431,0,0,0,0,0.2062,0.2062,0.2082,0.2114,0.2165,0.2272,0.2344,0.2414,0.2537,0.2404,0.2604,0.26,0.2638,0.2422,0.2478,0.2477,0.2477,0.2477,0.2477,0.205,0.2062,0.2066,0.2102,0.2182,0.234,0.245,0.2557,0.2579,0.2673,0.2717,0.2853,0.2632,0.2738,0.2739,0.2739,0.274,0.274,0.2741,0.1983,0.1963,0.2031,0.2048,0.2195,0.2318,0.2566,0.2669,0.286,0.2842,0.2873,0.2585,0.2755,0.2752,0.275,0.2748,0.2747,0.2746,0.2745,0.1922,0.1905,0.1951,0.2013,0.2162,0.2369,0.255,0.2797,0.2931,0.3022,0.2794,0.2931,0.2921,0.3074,0.3075,0.3075,0.3076,0.3076,0.3076,0.1837,0.1861,0.1884,0.1994,0.2059,0.2253,0.2616,0.2728,0.2952,0.2876,0.3074,0.2964,0.2953,0.2937,0.3082,0.3081,0.308,0.308,0.3079,0.171,0.1785,0.1788,0.1836,0.1966,0.2063,0.242,0.2628,0.2749,0.2741,0.2786,0.2798,0.27,0.2695,0.2666,0.2737,0.2733,0.2729,0,0.1632,0.1663,0.1669,0.1702,0.1752,0.1935,0.2011,0.2225,0.2454,0.2378,0.2692,0.2732,0.2742,0.2618,0.2608,0.2565,0,0,0,0.1523,0.1541,0.1521,0.1595,0.1623,0.1766,0.2026,0.2073,0.2396,0.2457,0.263,0.2656,0.2864,0.31,0.2979,0.2965,0.2933,0,0]},{"header":{"parameterUnit":"m.s-1","parameterCategory":2,"la1":30.2992,"la2":30.254,"lo1":-89.0895,"lo2":-89.0443,"dy":0.0025,"dx":0.0025,"nx":19,"ny":19,"refTime":"2026-04-17T09:00:00:Z","depth":"4","parameterNumber":3,"parameterNumberName":"V-component_of_CURRENTS"},"data":[0,0,0,0.0128,0.0128,0.011,0.0109,0.0054,0.0053,0,0,0,0,0,0,0,0,0,0,0,0.0134,0.0134,0.0128,0.0128,0.011,0.0109,0.0054,0.0053,0,0,0,0,0,0,0,0,0,0,0,0.0134,0.0134,0.0134,0.0128,0.011,0.0109,0.0054,0.0073,0,0,0,0,0,0,0,0,0,0,0.0093,0.0106,0.0134,0.0134,0.0128,0.011,0.0109,0.0074,0.0072,0.0056,0,0.0063,0,0.0061,0.005,0.0049,0,0,0,0.0116,0.0108,0.0108,0.0134,0.0128,0.011,0.0114,0.0073,0.007,0.0053,0.0062,0.006,0.006,0.0049,0.0049,0.0049,0.0049,0,0,0.0117,0.0123,0.011,0.0106,0.0134,0.0115,0.0114,0.0071,0.007,0.0062,0.0059,0.0059,0.0049,0.0049,0.0048,0.0049,0,0,0,0.0128,0.0124,0.0124,0.0108,0.011,0.0115,0.0114,0.0072,0.0074,0.0058,0.0059,0.0049,0.0048,0.0048,0.0048,0.0156,0,0,0,0.0128,0.0131,0.0125,0.0127,0.0112,0.0095,0.0115,0.0077,0.0072,0.0059,0.0049,0.0048,0.0047,0.0048,0.0152,0.0223,0,0,0,0.0133,0.0131,0.0134,0.0127,0.0125,0.0096,0.0095,0.0075,0.0072,0.0049,0.0047,0.0047,0.0048,0.0148,0.0216,0.0233,0,0,0,0.0132,0.0159,0.0134,0.0165,0.0126,0.0153,0.0095,0.0098,0.0086,0.0048,0.0048,0.0048,0.0147,0.0212,0.0229,0.0264,0,0,0,0.017,0.0163,0.0184,0.0162,0.0212,0.0154,0.0197,0.0148,0.0091,0.0056,0.0056,0.0153,0.0216,0.0232,0.0315,0,0,0,0,0.0199,0.0219,0.0227,0.0249,0.025,0.0269,0.0216,0.0185,0.0153,0.0089,0.0141,0.0177,0.0184,0.0193,0.0053,0.0053,0.0053,0.0052,0.0052,0.0254,0.0267,0.0321,0.034,0.0357,0.0343,0.0339,0.0287,0.022,0.0216,0.0255,0.0332,0.0346,0.0229,0.0229,0.023,0.023,0.023,0.0231,0.0335,0.0378,0.0404,0.0463,0.048,0.0516,0.0469,0.042,0.0397,0.0333,0.0332,0.0294,0.0241,0.0239,0.0237,0.0236,0.0235,0.0235,0.0234,0.0374,0.0405,0.0444,0.0545,0.0638,0.0643,0.0704,0.064,0.051,0.0525,0.0493,0.0399,0.0399,0.0514,0.0514,0.0515,0.0515,0.0515,0.0515,0.0404,0.045,0.0538,0.0648,0.0738,0.0833,0.0855,0.0817,0.0701,0.0635,0.056,0.0427,0.0418,0.0413,0.0522,0.0521,0.052,0.0519,0.0519,0.0468,0.0486,0.0613,0.0708,0.0915,0.0992,0.1015,0.0937,0.0897,0.0802,0.0662,0.0653,0.0613,0.06,0.0599,0.0767,0.0768,0.0769,0,0.0505,0.0526,0.07,0.086,0.1016,0.1087,0.1084,0.1033,0.0875,0.0866,0.0836,0.0681,0.0672,0.0627,0.0616,0.0618,0,0,0,0.0562,0.0598,0.0734,0.0888,0.1076,0.1084,0.1085,0.1051,0.0913,0.0879,0.0791,0.0785,0.0662,0.0541,0.0458,0.0446,0.0435,0,0]}]]